Terug naar catalogus

STARLINK-5786

ActiefCommunicatieVLEO
NORAD 56032·PAYLOAD·🇺🇸 United States

Gelanceerd Mar 24, 2023 vanaf Cape Canaveral Space Force Station

Loading…

Volgende Passages (komende 24 uur)

TLE

VersSource: CelesTrak SupGP

Epoch: Sep 15, 2026, 02:50 UTC

1 56032C 23042AY  26258.11854167 -.00032689  00000+0 -11849-2 0  2585
2 56032  43.0023  55.5703 0002022 269.4559 120.5754 15.27567904    12

Volg STARLINK-5786 in realtime met AllMySat

Download on the App Store